Погода в Новокуровке

Россия / Хабаровский край     48°51′01″N   134°18′39″E
темп.,
°C
ветер,
м/с
пор.,
м/с
влажн.,
%
обл.,
%
осадки,
мм/ч
давл.,
гПа
погр.,
м
24 января, пн
пн2401:00−33юв0010069 0.0 10269
04:00−34ююз0010098 0.0 10279
07:00−34ю1110098 0.0 10279
10:00−31юз1210099 0.0 102740
13:00−23юз239582 0.0 1025189
16:00−20ююз249310 0.0 1025192
19:00−27юв1110010 0.0 10259
22:00−29св1110054 0.0 10269
25 января, вт
вт2501:00−31всв1110072 0.0 10259
04:00−32всв1110095 0.0 10269
07:00−32св1110099 0.0 10269
10:00−28в11100100 0.1 102627
13:00−21юв119699 0.0 1025143
16:00−19ю119481 0.1 1024108
19:00−23ссв0099100 0.0 10249
22:00−25с11100100 0.0 10249
26 января, ср
ср2601:00−25с00100100 0.0 10249
04:00−25ююз00100100 0.0 10249
07:00−28ссз0010049 0.0 10239
10:00−25ссз009895 0.0 102427
13:00−19юз119288 0.0 1024168
16:00−18ююз119257 0.0 1023151
19:00−25ююз1110026 0.0 10249
22:00−28св0010068 0.0 10249
27 января, чт
чт2701:00−28всв11100100 0.0 10259
04:00−29в0010099 0.1 10259
07:00−30с00100100 0.0 10259
10:00−27зюз00100100 0.1 102528
13:00−21юз2296100 0.0 1024193
16:00−19юз249467 0.1 1023233
19:00−26ююз2310052 0.0 102227
22:00−27зюз2310069 0.0 102029
28 января, пт
пт2801:00−31зюз2210084 0.0 101911
04:00−30юз22100100 0.0 101824
07:00−23юз3695100 0.0 1015120
10:00−20юз4792100 0.0 1014157
13:00−17з368432 0.0 1013346
16:00−15зсз2582100 0.0 1012299
19:00−23з229762 0.0 101314
22:00−28сз229726 0.0 10139